Flag for Canada Weather past 2 weeks in Inuvik, Northwest Territories, Canada

36 °F

Partly sunny.

Feels Like: 31 °F
Forecast: 19 / 30 °F
Wind: 6 mph from Northwest

Location: Inuvik

Current Time: Oct 4, 2015 at 7:30:10 PM

Latest Report: Oct 4, 2015 at 7:00 PM

Visibility: 15 mi

Pressure: 30.05 "Hg

Humidity: 87%

Dew point: 32 °F

Location of InuvikLocation

Historic Weather in Inuvik — Graph


Inuvik temperature yesterday

Maximum temperature yesterday: 43 °F (at 4:00 PM)
Minimum temperature yesterday: 27 °F (at 8:00 AM)
Average temperature yesterday: 35 °F

Past Weeks' High & Low Weather Summary

High45 °F (Sep 28, 6:00 PM)100% (Sep 20, 11:00 AM)30.45 "Hg (Sep 20, 11:00 AM)
Low23 °F (Oct 2, 2:00 AM)60% (Sep 27, 7:00 PM)29.11 "Hg (Sep 29, 9:00 PM)
Average32 °F85%29.90 "Hg
* Reported Sep 19 6:00 PM — Oct 4 6:00 PM, Inuvik, Weather by CustomWeather, © 2015

Note: Actual official high and low records may vary slightly from our data, if they occured in-between our weather recording intervals... More about our weather records


Inuvik weather history for previous 24 hours

Time TempWeatherWind HumidityBarometerVisibility
6:00 PM
Sun, Oct 4
37 °FPartly sunny.6 mph81%30.04 "Hg15 mi
5:00 PM37 °FPartly sunny.5 mph81%30.04 "Hg15 mi
4:00 PM37 °FPartly sunny.5 mph75%30.03 "Hg15 mi
3:00 PM37 °FPartly sunny.6 mph75%30.03 "Hg15 mi
2:00 PM37 °FPartly sunny.6 mph75%30.01 "Hg15 mi
1:00 PM37 °FPartly sunny.6 mph75%30.01 "Hg15 mi
12:00 PM34 °FPassing clouds.No wind87%30.00 "Hg15 mi
11:00 AM30 °FPassing clouds.3 mph93%29.99 "Hg15 mi
10:00 AM28 °FPassing clouds.3 mph93%29.98 "Hg15 mi
9:00 AM28 °FPassing clouds.6 mph93%29.98 "Hg15 mi
8:01 AM30 °FPartly cloudy.5 mph93%29.97 "Hg15 mi
7:00 AM28 °FPassing clouds.5 mph93%29.96 "Hg15 mi
6:00 AM32 °FPartly cloudy.3 mph93%29.96 "Hg15 mi
5:00 AM32 °FMostly cloudy.6 mph93%29.96 "Hg15 mi
4:00 AM34 °FMostly cloudy.5 mph87%29.96 "Hg15 mi
3:00 AM34 °FPassing clouds.6 mph93%29.96 "Hg15 mi
2:00 AM32 °FPassing clouds.7 mph93%29.96 "Hg15 mi
1:00 AM32 °FPassing clouds.3 mph93%29.97 "Hg15 mi
12:00 AM32 °FPassing clouds.5 mph93%29.97 "Hg15 mi
11:00 PM
Sat, Oct 3
34 °FPartly sunny.3 mph87%29.99 "Hg15 mi
10:00 PM37 °FPartly sunny.2 mph81%30.00 "Hg15 mi
9:00 PM37 °FPartly sunny.6 mph81%30.02 "Hg15 mi
8:00 PM39 °FPartly sunny.5 mph75%30.03 "Hg15 mi
7:00 PM41 °FPartly sunny.3 mph70%30.04 "Hg15 mi
Weather by CustomWeather, © 2015

See weather overviewHow to use our weather pages